Radiation Dose at Monitoring Post of Fukushima Daini Nuclear Power Station
Date,Time,MP-1(microSv/h),MP-2(microSv/h),MP-3(microSv/h),MP-4(microSv/h),MP-5(microSv/h),MP-6(microSv/h),MP-7(microSv/h),Wind Direction,Wind Velocity(m/s),Rain
2016/11/11,00:00,0.420,0.244,0.432,0.395,0.370,0.203,0.175,south-southwest,1.4,No
2016/11/11,00:10,0.420,0.244,0.434,0.394,0.368,0.202,0.174,west-southwest,0.8,No
2016/11/11,00:20,0.419,0.245,0.434,0.394,0.369,0.202,0.174,southwest,0.6,No
2016/11/11,00:30,0.421,0.244,0.431,0.396,0.370,0.203,0.175,south-southwest,0.8,No
2016/11/11,00:40,0.419,0.244,0.436,0.394,0.369,0.202,0.174,-,CALM,No
2016/11/11,00:50,0.420,0.245,0.433,0.393,0.369,0.202,0.175,-,CALM,No
2016/11/11,01:00,0.420,0.244,0.433,0.395,0.370,0.203,0.174,-,CALM,No
2016/11/11,01:10,0.418,0.244,0.434,0.395,0.368,0.203,0.173,northeast,0.5,No
2016/11/11,01:20,0.419,0.244,0.433,0.394,0.370,0.203,0.175,-,CALM,No
2016/11/11,01:30,0.421,0.245,0.432,0.395,0.368,0.203,0.176,north,1.5,No
2016/11/11,01:40,0.421,0.244,0.436,0.391,0.367,0.204,0.174,east-southeast,0.7,No
2016/11/11,01:50,0.421,0.243,0.434,0.395,0.369,0.204,0.174,north-northeast,0.8,No
2016/11/11,02:00,0.421,0.244,0.433,0.396,0.369,0.202,0.175,south,0.8,No
2016/11/11,02:10,0.420,0.244,0.432,0.393,0.367,0.204,0.175,north,1.3,No
2016/11/11,02:20,0.419,0.244,0.431,0.394,0.370,0.202,0.175,north,2.6,No
2016/11/11,02:30,0.421,0.246,0.433,0.395,0.368,0.203,0.175,north,3.0,No
2016/11/11,02:40,0.419,0.243,0.433,0.395,0.366,0.204,0.176,north-northwest,3.4,No
2016/11/11,02:50,0.419,0.243,0.432,0.397,0.370,0.203,0.174,north-northwest,2.4,Yes
2016/11/11,03:00,0.421,0.243,0.436,0.395,0.370,0.204,0.175,north-northwest,3.5,Yes
2016/11/11,03:10,0.419,0.245,0.434,0.393,0.369,0.204,0.176,north-northwest,4.1,Yes
2016/11/11,03:20,0.422,0.244,0.433,0.395,0.370,0.204,0.176,east-southeast,6.9,Yes
2016/11/11,03:30,0.422,0.244,0.434,0.393,0.368,0.204,0.175,north-northeast,3.1,Yes
2016/11/11,03:40,0.419,0.246,0.434,0.391,0.367,0.205,0.175,north-northwest,4.6,Yes
2016/11/11,03:50,0.420,0.245,0.431,0.393,0.369,0.205,0.176,north,4.8,Yes
2016/11/11,04:00,0.418,0.246,0.433,0.391,0.368,0.204,0.177,north,4.6,Yes
2016/11/11,04:10,0.419,0.245,0.431,0.391,0.368,0.205,0.175,north-northwest,4.2,Yes
2016/11/11,04:20,0.418,0.244,0.430,0.393,0.368,0.205,0.177,north-northwest,3.5,Yes
2016/11/11,04:30,0.417,0.245,0.428,0.391,0.367,0.205,0.175,north-northwest,4.4,Yes
2016/11/11,04:40,0.416,0.245,0.428,0.390,0.365,0.205,0.177,north-northwest,4.9,Yes
2016/11/11,04:50,0.416,0.243,0.425,0.389,0.367,0.204,0.175,north,4.6,Yes
2016/11/11,05:00,0.416,0.243,0.427,0.389,0.366,0.204,0.175,north-northwest,5.6,Yes
2016/11/11,05:10,0.413,0.244,0.426,0.388,0.365,0.205,0.175,north-northwest,5.9,Yes
2016/11/11,05:20,0.415,0.244,0.423,0.389,0.367,0.203,0.174,north-northwest,5.9,Yes
2016/11/11,05:30,0.415,0.243,0.424,0.387,0.365,0.203,0.175,northwest,5.1,Yes
2016/11/11,05:40,0.413,0.243,0.424,0.387,0.363,0.202,0.173,north-northwest,5.3,Yes
2016/11/11,05:50,0.412,0.242,0.422,0.386,0.363,0.201,0.174,north-northwest,6.5,Yes
2016/11/11,06:00,0.411,0.242,0.420,0.385,0.363,0.201,0.173,north-northwest,5.9,Yes
2016/11/11,06:10,0.410,0.242,0.421,0.381,0.363,0.201,0.172,north-northwest,5.9,Yes
2016/11/11,06:20,0.410,0.242,0.418,0.384,0.364,0.201,0.172,west-southwest,5.4,Yes
2016/11/11,06:30,0.411,0.242,0.419,0.384,0.365,0.201,0.173,north,6.7,Yes
2016/11/11,06:40,0.411,0.240,0.419,0.381,0.363,0.201,0.174,north,7.5,Yes
2016/11/11,06:50,0.409,0.241,0.418,0.381,0.363,0.201,0.173,north-northwest,7.4,Yes
2016/11/11,07:00,0.410,0.242,0.417,0.382,0.366,0.201,0.173,north-northwest,7.5,Yes
2016/11/11,07:10,0.410,0.241,0.419,0.381,0.363,0.201,0.172,north-northwest,7.0,Yes
2016/11/11,07:20,0.408,0.241,0.415,0.382,0.363,0.199,0.172,north-northwest,7.0,Yes
2016/11/11,07:30,0.407,0.239,0.414,0.379,0.363,0.200,0.171,north-northwest,7.8,Yes
2016/11/11,07:40,0.408,0.239,0.415,0.379,0.361,0.201,0.171,north-northwest,8.0,Yes
2016/11/11,07:50,0.406,0.238,0.415,0.380,0.362,0.199,0.171,north-northwest,8.3,Yes
2016/11/11,08:00,0.406,0.238,0.413,0.379,0.363,0.199,0.170,north-northeast,8.3,Yes
2016/11/11,08:10,0.408,0.239,0.416,0.376,0.362,0.198,0.172,north,8.6,Yes
2016/11/11,08:20,0.407,0.239,0.413,0.376,0.363,0.198,0.170,north,9.3,Yes
2016/11/11,08:30,0.405,0.238,0.413,0.378,0.364,0.197,0.170,north,9.5,Yes
2016/11/11,08:40,0.406,0.238,0.413,0.376,0.361,0.197,0.170,north-northwest,8.9,Yes
2016/11/11,08:50,0.405,0.237,0.414,0.377,0.361,0.197,0.168,north-northwest,9.1,Yes
2016/11/11,09:00,0.403,0.236,0.412,0.377,0.361,0.196,0.169,north-northwest,9.1,Yes
2016/11/11,09:10,0.405,0.237,0.414,0.374,0.362,0.196,0.170,north-northwest,6.8,Yes
2016/11/11,09:20,0.404,0.237,0.411,0.375,0.360,0.197,0.168,west-northwest,5.3,Yes
2016/11/11,09:30,0.402,0.236,0.409,0.372,0.361,0.196,0.167,north-northwest,6.5,Yes
2016/11/11,09:40,0.403,0.235,0.410,0.371,0.361,0.196,0.169,north-northwest,8.2,Yes
2016/11/11,09:50,0.401,0.235,0.409,0.371,0.358,0.195,0.168,west-southwest,10.5,Yes
2016/11/11,10:00,0.399,0.236,0.406,0.369,0.359,0.194,0.169,north-northeast,5.1,Yes
2016/11/11,10:10,0.399,0.236,0.407,0.368,0.358,0.196,0.170,west-southwest,1.3,Yes
2016/11/11,10:20,0.399,0.237,0.408,0.370,0.360,0.196,0.169,north-northeast,5.3,Yes
2016/11/11,10:30,0.398,0.238,0.408,0.369,0.362,0.196,0.169,west-northwest,2.4,Yes
2016/11/11,10:40,0.400,0.237,0.409,0.371,0.360,0.196,0.171,northwest,4.1,Yes
2016/11/11,10:50,0.400,0.239,0.410,0.373,0.361,0.197,0.171,west-northwest,5.1,Yes
2016/11/11,11:00,0.398,0.239,0.410,0.372,0.363,0.196,0.171,north,7.1,Yes
2016/11/11,11:10,0.401,0.239,0.412,0.373,0.363,0.197,0.172,north-northwest,5.8,Yes
2016/11/11,11:20,0.401,0.238,0.411,0.375,0.363,0.196,0.172,north,6.4,No
2016/11/11,11:30,0.400,0.238,0.409,0.374,0.364,0.195,0.170,north-northwest,5.9,No
2016/11/11,11:40,0.400,0.236,0.413,0.375,0.362,0.194,0.168,north-northwest,5.9,No
2016/11/11,11:50,0.399,0.236,0.410,0.374,0.363,0.194,0.168,north-northwest,6.1,No
2016/11/11,12:00,0.397,0.235,0.409,0.373,0.361,0.192,0.168,north-northwest,6.5,No
2016/11/11,12:10,0.398,0.234,0.412,0.374,0.357,0.193,0.167,north-northwest,5.5,No
2016/11/11,12:20,0.396,0.234,0.408,0.372,0.363,0.192,0.165,north-northwest,4.5,No
2016/11/11,12:30,0.396,0.233,0.411,0.372,0.360,0.191,0.165,north,5.5,Yes
2016/11/11,12:40,0.397,0.234,0.410,0.373,0.359,0.192,0.166,north,5.8,Yes
2016/11/11,12:50,0.395,0.234,0.408,0.371,0.360,0.191,0.165,north-northwest,6.7,Yes
2016/11/11,13:00,0.397,0.233,0.411,0.374,0.359,0.191,0.166,north-northwest,6.8,Yes
2016/11/11,13:10,0.397,0.232,0.408,0.372,0.362,0.191,0.165,north-northwest,6.6,No
2016/11/11,13:20,0.396,0.233,0.409,0.373,0.360,0.191,0.165,north-northwest,6.7,No
2016/11/11,13:30,0.398,0.232,0.409,0.374,0.358,0.192,0.166,north-northwest,7.0,No
2016/11/11,13:40,0.396,0.233,0.409,0.372,0.360,0.190,0.164,north-northwest,8.4,No
2016/11/11,13:50,0.396,0.232,0.410,0.373,0.359,0.190,0.165,north-northwest,8.0,Yes
2016/11/11,14:00,0.398,0.233,0.408,0.371,0.358,0.191,0.164,north-northwest,8.7,No
2016/11/11,14:10,0.396,0.232,0.409,0.373,0.359,0.191,0.164,north-northwest,7.9,No
2016/11/11,14:20,0.396,0.232,0.410,0.374,0.359,0.190,0.163,north-northwest,7.2,No
2016/11/11,14:30,0.398,0.233,0.408,0.370,0.359,0.191,0.165,north-northwest,7.0,Yes
2016/11/11,14:40,0.396,0.231,0.409,0.372,0.358,0.191,0.163,north-northwest,7.3,Yes
2016/11/11,14:50,0.395,0.231,0.409,0.371,0.357,0.190,0.164,north-northwest,7.7,No
2016/11/11,15:00,0.397,0.232,0.409,0.371,0.360,0.190,0.163,north-northwest,7.8,No
2016/11/11,15:10,0.394,0.232,0.410,0.373,0.359,0.190,0.165,north,7.3,No
2016/11/11,15:20,0.396,0.231,0.409,0.372,0.357,0.191,0.163,north-northwest,7.5,No
2016/11/11,15:30,0.395,0.232,0.407,0.373,0.360,0.190,0.165,north-northwest,7.7,No
2016/11/11,15:40,0.396,0.231,0.408,0.370,0.356,0.190,0.163,north-northwest,8.0,No
2016/11/11,15:50,0.397,0.231,0.407,0.371,0.356,0.191,0.163,north-northwest,8.4,No
2016/11/11,16:00,0.397,0.233,0.408,0.373,0.358,0.190,0.164,north-northwest,7.8,No
2016/11/11,16:10,0.394,0.232,0.409,0.372,0.358,0.190,0.163,north-northwest,8.1,No
2016/11/11,16:20,0.397,0.232,0.408,0.373,0.359,0.190,0.164,north-northwest,6.7,No
2016/11/11,16:30,0.396,0.233,0.409,0.372,0.361,0.191,0.163,north-northwest,5.6,Yes
2016/11/11,16:40,0.396,0.233,0.409,0.373,0.358,0.191,0.162,north-northwest,5.9,No
2016/11/11,16:50,0.399,0.232,0.410,0.375,0.361,0.190,0.164,north-northwest,5.6,No
2016/11/11,17:00,0.397,0.233,0.410,0.372,0.359,0.191,0.164,north-northwest,5.5,No
2016/11/11,17:10,0.397,0.231,0.409,0.375,0.359,0.191,0.163,north-northwest,5.3,No
2016/11/11,17:20,0.397,0.231,0.410,0.374,0.360,0.191,0.165,north-northwest,5.8,No
2016/11/11,17:30,0.397,0.232,0.410,0.373,0.356,0.192,0.164,north-northwest,6.0,No
2016/11/11,17:40,0.398,0.233,0.409,0.374,0.357,0.191,0.164,north,6.5,No
2016/11/11,17:50,0.396,0.231,0.409,0.371,0.360,0.191,0.164,north,6.4,No
2016/11/11,18:00,0.397,0.231,0.408,0.374,0.359,0.192,0.164,north-northwest,6.5,Yes
2016/11/11,18:10,0.398,0.232,0.412,0.374,0.360,0.192,0.164,north,6.5,Yes
2016/11/11,18:20,0.396,0.232,0.409,0.373,0.360,0.191,0.163,north,6.4,No
2016/11/11,18:30,0.397,0.233,0.410,0.375,0.357,0.192,0.164,north,6.0,No
2016/11/11,18:40,0.399,0.232,0.410,0.373,0.361,0.191,0.164,north,6.3,No
2016/11/11,18:50,0.398,0.232,0.409,0.376,0.358,0.191,0.164,north,5.9,No
2016/11/11,19:00,0.400,0.233,0.412,0.373,0.359,0.192,0.164,north,6.7,Yes
2016/11/11,19:10,0.398,0.233,0.409,0.374,0.361,0.193,0.166,north,5.1,No
2016/11/11,19:20,0.398,0.232,0.409,0.374,0.358,0.193,0.164,north,5.3,No
2016/11/11,19:30,0.398,0.233,0.411,0.373,0.361,0.192,0.166,north,4.1,No
2016/11/11,19:40,0.399,0.233,0.410,0.375,0.359,0.193,0.166,north,4.2,No
2016/11/11,19:50,0.399,0.232,0.412,0.373,0.359,0.193,0.165,north,3.6,No
2016/11/11,20:00,0.402,0.234,0.410,0.374,0.361,0.192,0.165,north,3.7,No
2016/11/11,20:10,0.398,0.233,0.411,0.375,0.359,0.192,0.165,north-northwest,3.8,No
2016/11/11,20:20,0.399,0.233,0.410,0.373,0.359,0.193,0.165,north-northwest,4.1,No
2016/11/11,20:30,0.401,0.232,0.409,0.376,0.361,0.191,0.165,north-northwest,4.3,No
2016/11/11,20:40,0.398,0.232,0.411,0.372,0.358,0.191,0.165,north-northwest,3.7,No
2016/11/11,20:50,0.398,0.233,0.409,0.374,0.359,0.192,0.164,north-northwest,3.9,No
2016/11/11,21:00,0.398,0.232,0.412,0.374,0.361,0.192,0.165,north,4.2,No
2016/11/11,21:10,0.400,0.232,0.410,0.372,0.359,0.192,0.164,north,4.6,Yes
2016/11/11,21:20,0.399,0.232,0.408,0.374,0.358,0.192,0.164,north,4.2,Yes
2016/11/11,21:30,0.397,0.233,0.411,0.374,0.360,0.192,0.165,north,4.0,No
2016/11/11,21:40,0.399,0.232,0.409,0.373,0.359,0.193,0.165,north,4.5,Yes
2016/11/11,21:50,0.397,0.232,0.411,0.375,0.361,0.192,0.165,north,4.9,No
2016/11/11,22:00,0.399,0.233,0.410,0.373,0.360,0.191,0.164,north-northwest,5.1,No
2016/11/11,22:10,0.402,0.233,0.410,0.374,0.359,0.192,0.162,north,5.1,No
2016/11/11,22:20,0.398,0.233,0.410,0.374,0.361,0.192,0.164,north,4.3,No
2016/11/11,22:30,0.399,0.232,0.408,0.372,0.358,0.192,0.166,north,3.9,No
2016/11/11,22:40,0.400,0.231,0.410,0.375,0.361,0.193,0.164,north,3.1,No
2016/11/11,22:50,0.398,0.233,0.411,0.373,0.358,0.192,0.165,north-northeast,2.2,No
2016/11/11,23:00,0.400,0.233,0.409,0.375,0.360,0.191,0.164,north-northeast,1.4,No
2016/11/11,23:10,0.400,0.233,0.411,0.373,0.361,0.193,0.165,north,0.9,No
2016/11/11,23:20,0.400,0.233,0.409,0.372,0.357,0.191,0.163,north-northeast,1.7,No
2016/11/11,23:30,0.400,0.233,0.412,0.373,0.360,0.192,0.165,north-northeast,1.4,No
2016/11/11,23:40,0.397,0.232,0.411,0.373,0.359,0.192,0.164,northeast,0.9,No
2016/11/11,23:50,0.399,0.232,0.409,0.375,0.359,0.192,0.164,north-northeast,1.5,No
